RH
80 37 37 68 82 82 85 72 68 73 66 67 72 67 67 68 69 68 69 72 72 69 69 75 73 68 69 64 62 64 66 70 70 68 69 69 69 72 71 70 69 63 62 64 64 63 59 57 58 59 61 63 65 66 68 71 72 72 73 76 78 78 81 83 85 88 90 91 91 91 93 93 92 88 83 80 79 78 68 53 41 32 27 24 23
75 48 46 75 91 77 78 80 75 78 73 71 76 76 76 74 72 69 71 75 72 71 72 72 68 62 61 57 55 59 61 63 64 66 68 70 70 71 71 71 72 70 68 69 67 64 62 61 59 57 57 60 64 65 64 66 70 70 72 75 76 77 80 83 84 86 88 90 91 92 92 92 93 92 89 86 82 80 78 71 59 45 34 29 25
75 69 71 86 84 55 61 80 75 78 80 75 79 79 78 79 73 61 63 75 76 76 77 70 64 58 53 52 53 55 58 61 65 68 68 70 72 70 71 71 73 76 74 71 67 64 66 66 62 58 56 58 62 65 62 64 69 71 73 76 77 79 80 82 83 84 86 86 87 90 91 92 92 93 93 93 90 86 85 83 77 63 46 35 29
82 80 80 80 62 35 51 78 76 81 83 76 81 78 75 79 74 67 68 76 80 78 75 67 63 59 53 52 54 56 61 64 66 67 67 70 72 72 72 73 75 78 73 68 66 67 69 65 62 61 58 57 63 69 69 68 70 71 74 75 75 77 79 82 84 85 86 85 86 89 89 91 92 93 94 95 95 92 90 89 87 80 64 45 34
84 73 78 81 69 54 62 80 83 87 82 75 80 70 68 75 73 80 80 77 80 77 70 65 62 61 59 57 58 59 62 66 65 65 67 69 73 78 77 77 80 75 67 68 70 72 72 64 62 61 60 65 74 79 77 75 76 78 79 78 76 77 80 84 85 85 86 85 86 89 90 92 93 92 92 95 97 96 94 93 91 87 80 63 44
79 66 82 86 78 69 68 82 89 88 81 75 74 65 65 75 77 82 81 75 77 72 66 65 64 63 63 61 61 61 61 64 63 62 66 72 77 82 82 83 85 75 66 74 77 77 78 74 72 69 68 78 86 88 85 81 80 80 81 80 80 81 85 92 90 86 87 86 87 90 91 90 91 91 92 95 97 97 97 95 92 91 90 83 66
73 67 77 74 65 59 62 84 90 83 82 76 74 73 69 73 79 81 79 76 72 69 68 68 68 66 64 62 61 58 59 62 61 63 67 74 80 78 71 69 74 78 76 80 83 82 83 82 80 75 78 86 89 88 86 84 80 77 78 79 79 80 84 90 91 91 92 90 89 90 89 87 88 92 93 94 96 97 98 96 94 94 95 94 87
69 65 65 68 74 69 68 86 89 79 79 76 76 80 77 76 82 82 79 76 71 70 70 70 69 65 61 62 62 58 60 62 62 69 70 72 80 75 63 58 66 78 80 81 85 85 82 81 80 78 82 88 89 89 84 81 77 71 71 77 81 83 87 88 88 93 97 94 91 90 91 90 89 90 91 95 99 97 96 97 96 94 94 96 95
60 59 57 66 78 79 80 84 85 81 74 73 74 79 85 82 80 83 81 73 71 73 71 71 67 62 61 60 58 59 62 62 62 72 75 74 77 72 67 70 78 82 79 79 84 86 81 80 83 83 88 89 86 85 79 76 74 65 62 67 71 76 83 90 91 93 96 94 93 94 94 93 93 93 92 93 96 95 94 97 99 95 91 94 96
57 60 56 59 65 75 86 75 73 81 72 69 71 75 84 75 66 77 82 76 77 78 71 68 68 63 63 59 55 61 65 65 70 73 68 66 71 76 78 79 83 84 80 78 79 81 81 84 89 89 91 91 83 74 69 70 68 59 51 44 42 50 63 79 89 91 93 93 95 98 97 97 98 97 95 92 94 95 94 95 99 96 92 94 97
62 64 57 55 62 76 85 66 64 80 73 69 71 71 75 65 55 64 77 81 82 81 62 54 67 66 63 64 58 61 61 59 69 72 65 65 73 79 78 75 75 77 76 74 78 81 83 88 91 92 91 87 79 67 62 68 66 52 37 25 21 30 43 57 72 81 85 89 91 94 95 97 98 97 97 97 98 98 96 96 97 96 96 97 98
66 67 59 54 67 82 78 56 60 78 73 71 72 64 62 61 61 66 79 87 84 75 49 37 59 65 63 66 57 53 49 44 54 69 76 75 72 69 66 62 50 52 68 74 79 83 84 85 84 87 86 81 80 69 63 72 69 49 28 19 20 24 28 35 47 57 65 73 78 82 86 90 92 94 97 99 100 100 97 98 97 95 97 99 97
68 66 61 57 72 87 77 55 60 78 73 71 72 60 54 59 65 66 76 90 86 65 40 38 63 68 64 67 61 55 47 43 46 59 77 77 66 58 54 43 17 26 65 76 78 82 82 81 68 55 48 58 70 60 65 82 74 53 32 22 24 23 23 24 27 33 41 51 59 66 72 79 85 88 91 94 97 100 99 99 98 95 95 97 98
78 71 67 70 83 86 74 60 63 75 71 69 71 60 51 54 57 54 64 87 90 64 40 44 60 61 62 69 70 67 59 58 57 57 69 72 65 57 49 39 16 22 53 61 72 80 72 61 43 30 32 51 58 46 64 88 77 61 46 32 26 19 17 15 14 17 22 30 37 44 52 62 71 78 83 86 90 94 95 95 96 96 95 96 98
83 77 77 87 93 76 62 64 65 68 68 67 68 61 56 59 59 57 66 85 89 71 47 36 34 39 58 72 73 77 76 72 70 66 66 69 69 62 58 54 34 22 31 45 66 72 62 53 47 56 71 78 72 61 75 89 80 65 47 37 32 23 21 20 14 13 16 22 25 28 35 41 49 58 68 74 80 85 87 88 90 90 92 95 98
66 65 74 87 88 68 59 65 65 67 70 67 66 66 65 68 66 67 78 86 85 77 59 36 21 30 60 71 60 68 76 71 73 73 71 74 74 69 67 67 49 24 26 59 80 73 69 73 73 80 86 83 78 74 80 85 76 56 37 35 36 28 27 28 24 20 21 25 24 24 27 30 33 38 47 55 63 70 76 80 83 85 87 91 94
60 66 77 81 73 63 62 66 66 71 73 69 69 68 67 68 68 74 82 85 84 83 73 47 19 22 48 61 59 67 70 64 70 75 72 74 75 72 70 70 54 20 22 68 90 72 62 66 68 74 79 74 68 70 79 77 57 36 32 36 33 28 28 31 32 31 33 36 32 29 29 28 27 28 33 38 43 50 57 63 70 76 79 83 87
65 75 78 75 65 59 65 70 71 72 69 67 67 64 64 68 75 83 85 79 79 83 81 57 26 19 27 38 57 70 63 55 62 71 73 74 74 72 71 68 50 20 20 61 89 72 44 37 41 55 70 61 50 58 62 56 41 30 35 37 33 32 30 30 33 33 39 43 41 40 39 39 36 33 33 33 31 32 38 45 51 59 65 72 78
69 76 71 67 63 61 68 73 73 73 71 67 66 65 66 72 79 86 82 72 74 82 80 65 52 45 29 22 39 45 37 38 50 65 71 74 75 69 66 62 45 34 32 48 83 76 41 40 41 42 61 56 46 53 40 31 35 35 40 39 35 38 33 31 34 34 39 41 41 43 43 48 52 46 41 37 31 28 30 35 39 44 50 57 65
74 81 74 64 62 68 76 81 79 77 77 75 75 74 71 78 82 79 71 67 77 82 70 67 76 67 41 34 50 50 36 26 35 60 69 66 72 65 58 55 45 53 53 45 73 72 41 58 63 45 56 55 53 63 41 29 39 45 49 45 40 43 38 39 42 41 43 42 43 46 43 49 59 55 47 41 38 37 37 38 41 42 42 45 50
72 79 76 66 69 79 81 85 87 82 82 83 82 80 78 81 79 69 64 66 76 69 49 54 69 62 48 55 73 76 65 44 32 51 64 57 61 60 52 50 52 68 66 45 62 65 45 63 66 44 44 40 47 61 45 34 43 51 54 49 47 48 46 52 55 52 51 50 49 50 48 49 54 54 51 51 52 52 51 52 54 52 45 40 40
72 75 79 80 84 88 84 87 92 90 93 91 85 84 83 80 71 59 54 53 55 43 30 40 46 41 43 54 68 76 78 70 47 50 66 58 55 57 48 44 53 70 65 45 51 60 54 62 57 41 34 27 38 51 42 37 42 45 46 47 50 50 54 63 61 55 52 51 50 48 47 47 46 49 52 59 69 71 71 71 67 62 55 46 39
76 79 85 88 84 85 90 95 96 95 98 93 84 79 74 68 58 45 35 32 34 27 23 31 30 28 34 38 55 69 72 68 54 55 69 61 54 57 48 41 49 61 59 47 48 53 57 63 59 48 33 27 42 51 45 45 49 52 54 57 62 63 66 67 58 53 50 48 49 46 45 45 43 45 49 59 75 83 84 85 80 73 67 56 46
83 85 86 84 75 80 93 97 95 94 93 87 78 70 66 59 43 31 27 24 26 25 23 27 25 25 26 23 35 50 49 40 34 44 55 53 54 57 52 48 49 53 53 49 47 47 55 64 62 51 37 40 60 62 55 57 61 66 69 71 76 76 73 68 60 55 54 53 53 51 49 47 46 47 51 62 76 83 85 88 89 85 78 71 65
83 88 88 85 76 81 92 94 92 91 88 82 72 67 68 55 32 25 27 25 24 25 24 25 23 20 17 13 14 19 19 13 13 24 30 34 45 50 52 54 51 47 47 48 46 41 51 63 60 50 46 61 76 67 61 67 66 69 79 81 81 80 77 75 71 64 63 62 58 58 57 51 51 51 54 70 81 84 87 90 93 93 90 88 86
81 91 92 89 83 87 92 90 87 86 84 78 67 64 60 42 25 25 27 25 26 25 23 20 17 14 11 10 8 4 4 4 5 10 12 18 33 46 56 59 54 47 42 46 49 43 47 59 60 53 56 74 76 62 66 73 66 69 83 86 81 79 80 79 76 72 70 68 63 64 63 56 56 56 61 77 88 91 94 96 97 98 97 97 96
87 96 95 90 86 91 93 87 84 84 81 71 60 55 45 29 25 28 27 26 26 21 19 16 12 11 9 6 5 2 1 2 2 3 5 10 23 43 61 63 55 46 41 44 49 50 49 55 64 58 55 73 69 56 71 76 66 75 86 84 81 78 78 77 76 75 71 68 65 64 65 64 64 65 70 81 89 94 95 94 97 98 98 98 99
92 99 95 92 90 92 91 85 82 81 77 65 54 46 34 27 28 30 27 26 23 17 15 13 11 8 5 3 2 2 2 2 2 2 4 7 12 28 52 64 60 53 53 54 46 48 55 56 64 57 50 68 58 43 68 74 63 79 85 80 80 77 76 74 70 69 66 65 63 60 66 70 70 72 77 81 86 91 90 90 95 96 96 99 98
94 94 92 94 95 92 86 83 81 77 70 60 50 41 31 29 30 29 27 23 18 16 14 10 7 3 2 2 1 1 2 2 2 2 3 7 6 8 24 47 62 62 65 68 48 41 60 67 65 55 49 63 49 30 56 67 60 73 75 75 82 74 66 66 63 61 59 60 58 56 64 72 73 77 80 81 84 87 88 91 93 92 93 97 94
92 90 94 94 92 89 83 82 80 72 64 56 48 39 30 30 30 27 25 20 16 15 11 6 3 2 2 2 2 2 3 2 3 3 2 5 9 8 7 22 50 64 68 73 57 41 59 71 63 51 50 60 46 24 34 48 53 60 54 58 74 67 56 59 62 61 57 55 53 54 63 70 73 78 80 82 86 88 90 92 92 92 94 96 94
88 89 94 91 90 89 84 84 82 71 62 56 49 37 30 31 30 26 22 18 16 12 6 4 3 2 2 2 3 3 2 2 2 3 3 4 11 16 15 17 39 62 67 71 67 48 50 65 60 49 51 58 42 16 15 27 38 45 36 34 48 53 52 59 66 63 55 53 53 55 63 68 71 79 83 86 89 90 91 92 94 95 96 96 95
93 93 92 89 92 91 86 86 82 70 61 57 49 36 30 32 28 25 22 17 14 8 3 4 3 3 3 1 4 5 5 7 5 4 5 5 9 18 25 26 35 57 67 70 74 60 48 58 56 39 40 54 43 16 9 15 21 31 34 28 29 36 45 57 67 63 52 50 54 56 62 66 69 78 83 86 88 87 87 90 95 97 97 98 95
93 93 91 89 93 93 89 87 80 72 66 58 50 38 31 32 27 24 22 16 11 5 3 4 3 6 5 1 5 6 9 16 15 11 9 9 14 18 23 29 37 57 71 69 71 65 50 52 50 29 23 41 44 23 9 9 11 19 29 30 28 33 41 51 62 59 45 41 49 57 61 64 69 76 80 82 83 83 84 88 92 94 97 99 95
90 93 92 91 93 91 87 84 78 77 74 64 55 41 32 30 27 25 21 12 7 5 3 3 3 6 5 1 4 6 8 15 15 12 14 20 25 21 20 30 41 58 72 69 66 65 54 44 39 27 18 25 33 25 12 10 13 18 27 35 37 40 46 51 57 54 38 32 44 58 62 63 70 76 75 74 76 78 82 85 85 88 94 98 97
87 91 91 91 92 88 84 83 81 82 82 75 62 43 32 30 27 25 18 8 5 4 3 3 3 4 4 2 4 7 7 9 8 10 19 28 35 33 28 30 41 57 69 69 65 63 58 46 36 27 18 17 21 20 15 14 20 27 31 39 46 49 52 56 56 49 31 24 38 55 60 62 71 78 74 69 70 73 76 78 77 78 83 89 96
86 89 91 92 91 87 84 85 86 86 85 80 64 43 32 32 28 22 13 7 9 11 6 4 4 4 5 3 3 5 6 5 7 11 17 27 40 51 49 42 48 58 61 62 63 61 58 54 47 33 18 13 14 14 14 13 22 34 37 43 50 50 54 60 58 46 28 19 29 45 55 62 70 78 74 65 63 66 68 69 69 70 72 76 88
90 90 92 94 90 86 85 87 88 87 88 81 61 42 36 33 26 16 10 14 21 20 14 10 8 7 5 4 3 4 4 5 6 8 12 20 32 49 60 59 60 65 61 54 53 57 57 53 50 38 18 12 12 12 13 13 17 27 35 46 55 52 54 61 56 42 27 18 23 35 45 55 67 76 72 59 53 59 63 64 65 68 70 70 81
94 91 89 90 88 87 87 87 87 88 93 84 59 42 39 32 24 16 15 23 25 22 19 14 11 8 4 3 3 3 3 4 4 4 8 14 20 35 58 69 68 69 67 57 45 49 55 50 46 37 18 9 12 12 14 19 24 30 35 45 53 53 58 62 55 42 27 17 21 30 37 47 58 69 71 59 49 54 61 63 64 67 68 67 74
94 89 88 88 86 87 85 85 87 89 91 81 58 46 41 31 24 22 24 29 27 22 19 11 6 5 3 3 3 3 3 3 4 3 4 7 11 23 46 65 71 68 65 60 48 41 45 48 44 34 19 10 12 13 13 17 25 36 48 56 56 54 60 65 61 49 31 19 20 25 30 38 47 57 64 58 49 54 61 62 64 65 65 63 69
92 89 90 87 84 85 83 82 87 88 86 77 61 50 43 34 29 28 30 31 29 24 15 6 3 3 2 3 4 3 4 3 4 4 4 5 7 11 21 38 57 65 63 61 53 35 30 40 40 29 18 13 13 14 14 14 18 29 48 63 64 61 64 66 64 57 41 26 22 24 28 34 42 50 56 54 50 55 60 62 64 64 60 57 64
91 93 93 86 81 82 81 82 86 87 82 73 60 50 44 36 31 30 31 31 28 22 12 4 3 3 3 4 4 4 4 4 4 5 5 7 8 8 10 14 27 46 57 60 54 34 18 22 28 22 16 15 15 15 15 16 18 25 41 57 62 63 64 62 58 55 47 34 26 26 32 41 49 54 56 54 52 55 59 61 63 60 56 54 58
92 95 92 86 81 80 79 82 86 85 78 68 59 51 43 33 26 26 30 32 27 17 7 3 3 4 4 4 4 4 5 4 5 6 6 8 8 8 10 10 11 21 33 38 39 32 17 12 17 17 15 16 16 17 17 17 16 21 36 54 62 62 61 58 53 51 50 43 31 25 33 49 58 59 59 56 53 56 59 59 58 54 53 57 57
91 92 90 85 82 80 80 84 85 80 72 64 58 52 40 28 21 21 29 33 24 11 4 3 4 4 4 4 4 5 5 5 6 7 7 8 9 9 10 11 11 12 14 15 18 21 16 12 14 16 15 17 17 17 18 18 17 20 31 49 63 63 59 57 54 51 52 48 35 27 34 49 57 59 59 56 53 56 57 54 53 50 52 59 59
91 89 87 84 82 80 81 85 83 75 69 63 56 46 35 25 19 21 27 27 16 7 4 4 4 4 4 5 5 5 6 7 7 7 8 8 9 10 10 11 11 12 12 12 12 14 14 14 16 16 16 18 18 19 20 19 20 21 24 41 60 64 60 57 53 51 54 51 39 33 41 52 57 58 56 53 52 54 56 54 53 52 53 56 56
91 89 86 84 82 80 81 85 80 71 66 60 49 36 27 24 25 25 24 19 10 5 4 5 6 5 5 5 5 5 8 10 10 10 10 9 10 11 11 12 12 12 13 13 13 14 14 16 17 18 20 22 21 23 23 22 23 24 29 44 59 64 63 60 54 51 55 55 44 37 45 55 59 58 54 51 51 52 53 54 54 54 53 53 54
92 90 87 84 82 81 83 82 73 65 61 53 40 29 24 28 34 32 25 17 11 10 12 11 8 6 6 5 5 9 15 18 18 16 12 10 11 11 10 12 12 12 13 13 14 15 16 18 21 25 28 30 30 30 29 28 27 27 38 52 59 63 65 62 58 55 56 57 49 41 48 57 57 56 56 55 55 52 48 50 54 54 52 51 54
94 91 87 85 83 83 84 79 66 59 56 46 31 22 23 34 44 41 30 22 20 24 26 21 15 12 9 5 7 14 20 21 20 19 15 13 16 18 16 13 12 13 14 14 15 18 22 27 33 38 40 41 42 39 37 39 35 29 40 55 58 61 64 60 58 58 57 56 50 44 53 58 52 53 58 58 56 52 47 47 50 50 49 49 52
94 90 87 86 85 87 89 79 64 58 53 38 21 19 27 42 51 46 37 34 35 36 34 30 28 24 13 5 8 13 15 17 18 20 18 19 28 38 36 26 18 14 14 16 18 21 29 39 46 48 46 44 46 42 38 44 44 36 42 53 55 61 64 59 57 58 56 55 49 45 53 55 49 51 58 58 56 52 47 47 47 47 47 47 49
93 90 88 87 86 89 86 71 57 51 41 24 15 21 32 45 52 46 40 42 43 39 37 34 28 20 11 6 8 9 9 11 14 17 19 24 34 42 40 38 38 30 17 15 19 25 36 47 50 48 44 42 44 41 38 44 48 44 47 50 51 59 64 57 56 59 58 55 49 46 52 54 49 52 56 55 56 55 51 49 47 46 47 46 47
92 89 88 87 86 86 77 61 50 42 26 13 14 23 31 39 45 44 41 40 40 38 37 29 16 8 7 7 6 7 8 9 11 14 19 25 35 44 47 52 55 43 23 15 22 33 44 49 47 45 42 40 41 39 38 44 48 47 48 48 48 54 58 55 55 57 57 55 49 46 50 51 49 52 54 52 51 52 52 51 49 48 49 47 47
92 89 87 85 84 81 71 58 49 35 17 9 12 20 27 31 37 46 46 39 35 36 30 18 8 6 6 6 6 7 7 8 10 12 15 18 23 33 45 49 40 26 17 20 30 42 48 46 43 42 40 37 39 39 38 43 49 50 50 48 46 49 51 50 50 52 53 52 47 43 45 48 50 53 55 55 52 50 50 50 50 50 50 49 48
Wind_Speed
12 11 10 10 7 7 9 6 2 2 4 3 5 6 8 10 10 11 9 6 6 7 5 3 4 5 4 4 5 4 4 4 4 5 5 6 8 10 12 13 13 13 11 10 10 11 11 12 12 12 12 13 13 14 14 14 14 15 15 15 15 15 15 16 16 16 15 15 15 15 15 15 15 15 15 15 15 15 15 14 13 12 11 11 12
12 10 9 9 10 13 13 9 8 8 8 8 9 10 10 10 10 8 7 5 5 6 5 3 3 4 3 4 4 3 2 3 4 4 3 4 6 9 10 11 12 12 11 11 12 12 12 13 13 13 14 14 14 14 14 15 14 14 15 15 15 15 15 16 16 16 16 16 16 16 16 16 16 15 15 15 15 15 15 15 15 14 13 12 12
11 9 10 11 14 15 13 11 11 12 10 10 9 8 9 8 7 5 5 5 4 4 3 2 2 3 2 2 3 2 1 3 4 3 4 5 5 8 9 10 11 11 11 12 14 15 14 15 15 15 15 16 15 15 15 15 14 14 14 15 15 15 15 15 16 16 16 16 16 16 16 16 16 16 16 16 16 15 15 15 15 15 14 13 13
13 13 13 13 13 11 12 11 10 10 9 9 8 8 8 7 6 5 5 3 2 3 2 1 2 2 1 2 2 1 2 3 3 3 5 6 4 6 7 8 10 10 11 13 15 16 16 16 16 16 17 17 17 16 15 15 15 15 14 14 14 14 14 14 15 15 15 16 16 17 17 16 16 16 16 16 17 17 16 15 15 16 15 14 14
16 15 12 12 11 10 12 9 8 9 7 7 7 6 6 5 4 4 3 1 1 2 1 1 1 1 1 2 2 2 2 2 2 3 4 3 3 5 7 8 9 10 11 14 16 16 17 17 17 17 17 18 17 16 16 15 15 15 15 15 15 15 14 14 14 15 15 16 16 17 17 17 17 17 17 17 17 18 18 17 16 16 15 15 14
16 15 14 14 13 12 12 9 8 8 6 6 5 4 5 5 5 3 2 2 2 2 1 2 2 0 3 1 1 1 3 1 1 2 2 3 4 4 4 6 9 11 12 13 15 15 17 18 18 19 18 17 17 18 17 16 16 16 16 17 17 16 15 15 15 16 16 15 15 16 16 17 17 18 18 17 17 18 18 18 18 17 16 16 15
15 15 15 13 12 12 11 8 8 8 6 6 4 5 5 5 4 2 1 2 2 2 2 3 2 1 2 2 1 3 4 1 1 2 3 4 4 3 2 4 6 9 12 13 15 14 16 18 19 19 18 18 18 19 19 18 18 18 17 18 18 17 16 15 16 16 16 15 15 15 16 16 16 17 18 18 18 19 18 18 19 19 17 17 16
14 13 13 11 10 9 8 8 8 7 6 6 6 6 5 4 3 1 2 2 2 2 2 1 1 1 4 3 1 3 2 2 3 4 4 5 4 5 5 7 7 7 8 11 14 14 14 17 18 19 19 19 20 20 21 21 21 20 19 18 17 16 15 15 15 15 14 15 15 16 17 16 16 16 17 18 19 20 19 18 19 20 19 18 17
12 11 11 11 10 8 9 8 7 6 5 5 6 7 6 5 4 3 3 2 2 3 3 2 1 1 3 2 3 3 2 2 5 4 4 5 4 6 9 11 9 7 8 7 10 13 13 16 17 17 19 20 21 22 23 23 23 22 21 19 17 16 15 15 16 15 15 16 16 16 17 17 17 17 17 17 19 21 20 18 19 21 21 19 18
12 10 11 11 9 9 10 7 5 6 6 5 6 7 6 6 6 5 4 4 3 4 6 4 3 1 1 3 1 4 2 2 4 3 2 4 6 6 8 8 3 3 7 6 9 12 12 14 16 17 18 19 21 22 22 23 23 23 21 21 19 17 16 15 16 17 16 17 16 17 18 18 18 18 19 19 19 21 21 20 20 21 21 20 20
13 11 11 10 7 10 9 5 7 8 6 5 7 7 5 6 6 5 4 4 4 4 4 4 3 2 2 1 2 5 3 4 5 1 2 5 6 2 1 1 4 2 5 6 8 10 7 8 11 14 17 19 20 20 21 22 23 24 23 21 19 17 17 16 16 17 17 17 16 17 18 18 19 19 19 20 19 20 21 21 21 21 21 21 22
13 11 11 9 8 11 9 7 10 8 6 7 7 7 5 5 6 5 3 3 6 5 3 2 3 3 2 2 2 4 3 3 3 3 4 3 3 3 5 4 5 4 4 7 7 7 3 4 7 10 16 18 19 20 20 22 24 25 24 23 21 19 19 18 18 18 18 18 18 19 19 18 19 19 19 20 21 22 22 21 21 22 21 21 21
13 12 11 8 9 10 8 9 11 8 8 8 8 6 5 5 5 4 3 3 6 6 2 2 4 4 3 3 3 1 1 2 1 2 3 1 4 5 5 6 8 5 3 6 5 6 7 10 10 12 12 12 13 16 19 22 24 25 25 25 24 21 19 19 19 20 20 19 19 20 19 19 20 19 19 20 21 22 23 23 21 22 22 21 19
11 10 9 10 11 9 6 9 11 9 9 9 8 6 5 6 5 4 5 5 7 6 3 4 4 5 7 6 5 2 1 2 0 1 3 3 7 6 4 8 11 7 3 3 1 5 10 11 12 13 12 9 10 14 15 19 23 24 26 26 25 24 23 22 21 20 20 20 20 21 20 19 20 20 20 21 21 22 24 25 24 23 22 22 21
11 10 10 9 6 5 6 9 10 9 9 9 9 7 7 6 4 5 5 4 7 6 3 5 5 6 9 7 7 5 3 2 1 1 1 3 7 6 5 10 13 10 7 5 3 6 10 13 14 13 14 13 13 15 14 15 21 24 27 27 27 27 26 25 23 21 20 20 20 20 20 20 21 21 21 22 23 23 23 24 25 25 23 23 22
13 13 13 7 2 2 9 9 9 10 10 9 9 8 8 6 5 5 5 4 6 7 2 2 4 7 9 8 7 6 4 3 2 1 2 2 6 7 8 11 14 13 11 10 8 9 10 13 14 14 14 13 14 15 13 15 20 23 26 27 27 26 24 24 24 23 22 22 21 21 21 21 21 21 21 22 25 25 24 24 24 25 24 25 25
12 10 10 6 1 4 9 9 9 10 9 9 10 9 7 6 5 3 3 6 4 6 5 2 3 5 6 8 5 4 5 5 4 1 2 2 5 6 8 11 13 13 10 10 8 10 10 12 12 13 12 12 13 13 11 15 20 23 24 26 26 25 24 24 24 23 24 24 25 24 23 23 23 22 22 23 25 25 25 24 24 24 24 25 26
12 9 7 5 4 7 8 8 9 10 10 10 10 10 8 7 5 2 5 8 6 3 5 1 3 4 3 6 6 4 6 5 6 4 4 4 2 4 6 10 12 12 10 9 6 11 13 12 11 12 10 12 15 13 12 16 19 21 22 24 25 25 24 24 24 24 25 26 27 27 26 26 25 24 23 24 25 26 25 25 24 24 25 26 26
11 10 10 8 8 10 9 9 11 11 11 11 11 11 11 9 8 9 10 10 10 6 5 1 2 1 2 4 4 4 4 4 6 8 6 5 2 3 6 10 11 11 11 10 6 10 14 12 12 14 11 15 17 16 17 17 16 19 21 23 24 23 22 22 22 24 25 26 27 27 28 28 27 26 25 25 26 26 26 25 24 24 25 26 27
11 11 10 9 9 10 11 11 11 12 12 12 12 11 11 11 12 14 13 12 13 11 10 7 5 3 2 4 4 2 1 2 6 8 5 4 3 3 7 9 11 9 11 12 6 10 15 11 11 16 15 17 18 17 21 19 17 21 24 25 24 21 19 20 23 24 24 25 26 28 29 29 28 27 28 28 28 27 26 25 24 24 25 26 27
13 11 10 10 10 10 12 11 10 12 11 12 13 11 12 13 13 14 13 14 16 13 12 13 9 6 5 7 7 4 1 0 5 7 5 4 5 6 6 6 8 6 9 11 6 9 15 10 10 17 18 19 18 17 22 21 20 24 26 26 24 22 22 25 27 26 25 25 26 27 29 30 30 30 31 31 29 27 26 25 24 24 25 26 27
13 12 11 11 10 11 13 12 10 11 11 11 12 13 15 16 13 11 10 13 15 12 12 13 10 7 7 9 11 10 4 2 4 7 5 4 5 6 3 3 4 3 5 10 6 9 12 8 12 18 20 19 16 17 21 19 20 23 22 22 21 23 27 28 27 25 24 25 25 26 27 28 30 31 31 30 29 27 25 24 24 25 25 25 25
13 14 12 11 11 11 12 12 12 13 12 10 11 13 15 14 10 9 10 12 12 10 10 11 9 8 8 8 11 13 9 5 6 8 7 5 6 6 2 2 1 1 6 10 8 8 8 7 13 19 20 19 16 18 20 18 22 23 18 19 21 24 28 25 22 23 26 27 28 28 28 28 28 28 29 29 27 26 26 25 25 25 25 26 25
15 15 13 12 12 13 13 12 12 12 9 9 10 10 9 10 9 10 11 11 11 10 9 10 10 9 8 8 9 10 9 6 6 9 8 7 8 6 3 4 4 3 6 8 9 10 8 8 14 18 20 18 16 20 21 19 23 21 17 19 20 23 27 25 22 26 30 31 33 33 32 31 30 29 29 28 26 26 27 26 26 25 25 25 24
16 15 14 13 14 15 14 13 11 10 9 9 9 8 8 10 11 11 11 10 10 9 9 9 9 8 8 7 8 7 7 6 7 9 9 8 8 7 7 6 6 5 5 6 7 9 8 10 15 17 19 17 15 20 21 19 22 19 17 19 21 22 26 28 27 29 32 33 35 35 34 32 31 30 29 27 27 27 26 26 27 26 25 24 22
16 16 15 14 14 14 13 13 12 12 12 11 8 8 10 11 11 11 11 10 10 9 8 7 7 7 7 7 8 9 9 9 10 10 10 9 9 10 10 8 7 6 7 6 7 8 8 9 14 16 18 15 15 21 19 18 21 19 17 19 21 23 25 27 29 31 32 33 35 36 33 30 29 30 29 28 27 27 27 26 26 26 25 24 23
16 17 16 15 15 14 13 13 13 12 12 11 9 9 10 11 11 10 10 9 9 8 8 7 7 7 7 8 9 10 11 10 10 11 11 10 10 10 10 10 8 6 7 9 9 9 8 7 10 15 17 14 16 22 17 16 20 19 17 18 21 23 23 25 28 31 33 35 38 38 33 30 29 29 30 29 29 28 28 28 26 26 26 26 26
18 17 16 15 15 14 13 13 12 11 11 10 9 10 11 11 11 10 10 9 9 8 8 8 8 8 9 10 11 11 12 11 11 11 11 11 10 9 9 11 10 7 6 7 9 10 7 8 9 14 15 13 16 20 14 16 20 19 17 18 20 22 23 24 28 30 34 37 39 37 33 31 29 30 31 32 31 31 32 30 28 28 28 28 29
19 17 15 16 16 14 13 13 11 10 10 10 9 10 11 12 11 10 10 9 8 8 8 8 9 10 11 13 13 13 12 12 11 11 11 11 11 9 9 10 11 9 8 7 9 9 7 9 11 13 13 13 17 20 15 15 21 20 17 18 19 22 23 24 27 31 35 37 36 33 31 31 30 30 32 33 34 35 36 33 32 32 31 31 33
17 15 16 16 14 12 12 12 10 9 9 10 9 10 12 12 10 9 8 8 8 8 8 9 10 12 13 14 14 14 13 12 11 11 11 11 10 9 7 8 11 12 11 9 9 10 8 10 11 12 11 12 17 20 17 16 20 20 19 19 18 20 22 23 26 30 34 36 34 31 30 30 30 31 33 35 37 38 38 38 39 40 37 37 39
14 15 16 15 13 12 11 10 8 8 10 9 9 11 12 11 10 9 8 8 8 8 9 11 13 14 15 16 15 15 14 13 12 11 10 10 10 9 7 7 11 15 13 9 8 10 10 11 11 12 11 12 16 19 19 19 20 21 22 22 20 19 20 22 24 27 33 37 34 30 30 31 31 32 34 36 37 38 39 41 45 47 46 46 45
14 16 17 15 13 12 10 7 7 9 10 9 9 11 12 11 9 9 9 9 8 9 11 13 14 16 16 17 17 16 15 13 13 12 11 10 9 9 8 8 12 15 13 10 8 9 11 12 11 13 14 13 15 19 20 20 22 23 23 24 23 21 20 21 21 25 32 36 32 30 31 31 31 32 34 35 37 38 41 45 48 51 52 53 50
15 17 17 15 12 10 8 7 8 9 9 9 10 12 12 11 10 9 9 9 9 10 13 14 15 15 16 16 16 16 15 13 12 12 11 11 9 8 10 10 12 16 15 11 9 7 10 12 12 14 17 16 16 19 21 21 23 23 22 23 24 24 24 24 22 24 33 36 32 30 31 31 31 33 34 34 36 38 43 47 49 53 55 54 52
17 18 17 13 11 8 7 9 10 8 7 8 11 13 12 11 10 10 10 10 10 12 15 15 16 16 15 15 15 14 14 13 12 13 12 12 10 9 11 12 13 15 15 12 10 8 9 12 13 14 18 19 18 20 21 22 23 22 21 22 23 25 26 26 25 26 33 36 33 31 30 30 31 33 35 36 37 39 43 46 48 52 55 55 53
19 18 16 13 10 8 8 10 10 8 7 9 12 13 12 11 11 11 11 11 12 13 15 15 15 16 15 15 15 14 13 12 13 13 13 13 12 11 12 14 15 15 15 13 11 9 9 11 13 16 18 19 19 19 20 21 21 20 20 21 22 23 24 26 26 28 33 35 32 30 30 29 29 32 35 38 39 39 41 44 46 50 55 58 56
21 19 16 12 9 8 10 12 11 10 9 10 13 13 12 12 12 12 11 12 13 14 15 15 15 16 16 15 15 14 13 13 12 13 13 14 14 13 12 13 15 16 14 12 11 10 9 9 11 15 17 18 19 19 19 20 21 20 20 21 21 22 23 24 25 28 33 35 32 30 30 28 27 29 34 39 39 38 40 43 45 47 52 58 59
21 19 15 11 9 9 10 11 12 12 10 10 14 14 14 13 12 12 13 14 15 15 16 16 16 16 16 16 15 15 14 14 13 12 12 13 15 15 13 11 13 14 14 12 11 10 9 9 10 12 15 17 18 18 18 19 21 20 21 21 21 21 22 22 23 27 33 36 33 30 29 28 27 25 29 35 37 37 40 43 44 46 49 55 59
22 19 14 11 11 10 11 12 13 12 11 12 15 15 14 14 14 15 16 17 17 17 17 17 17 17 16 15 14 14 14 13 14 13 13 13 15 16 15 13 12 13 12 10 9 9 9 9 10 11 15 17 18 18 18 19 20 21 22 23 22 21 21 20 22 28 34 37 34 29 28 29 28 25 25 32 36 38 40 43 45 46 48 52 57
22 18 13 12 12 11 13 14 13 13 12 13 15 16 15 16 17 17 18 17 17 17 17 17 17 16 14 13 12 11 11 11 12 14 14 14 16 17 16 15 12 11 11 8 7 8 9 9 9 11 14 17 18 19 19 18 19 19 22 24 24 25 23 21 22 28 35 38 35 29 28 30 29 27 25 30 37 38 39 42 44 45 48 51 55
21 16 13 15 15 13 14 15 13 13 14 15 16 17 17 18 18 18 18 18 18 18 18 17 16 14 13 14 13 13 12 12 12 13 13 13 14 16 16 16 15 11 10 9 6 7 10 10 9 10 14 17 19 20 21 21 22 22 22 23 24 26 26 24 23 26 32 39 38 31 28 30 31 30 28 29 36 38 38 41 42 44 47 50 53
20 16 14 16 18 16 16 17 14 14 16 17 17 18 18 18 18 18 19 19 18 18 18 17 15 15 15 15 15 15 15 15 15 15 14 14 14 14 14 15 16 14 12 10 7 8 10 11 11 12 15 18 20 22 23 24 24 23 22 22 24 25 26 26 26 25 29 37 40 33 29 31 33 32 31 32 36 38 38 39 40 42 46 47 50
21 18 16 18 19 19 18 18 16 16 17 18 19 19 19 19 19 20 20 19 18 18 17 17 17 17 17 16 16 16 16 17 17 16 17 16 16 16 15 14 15 14 13 13 11 10 11 12 13 14 16 19 21 22 23 23 23 22 22 23 24 25 26 26 26 26 27 34 40 37 31 32 35 34 33 35 37 37 38 39 40 41 45 45 46
20 19 19 19 20 20 19 17 17 20 20 20 21 20 19 19 20 20 19 18 18 18 17 18 18 18 18 18 18 18 18 17 17 16 17 17 16 16 15 15 14 13 13 13 13 12 12 13 14 15 17 19 20 21 22 23 22 23 23 23 25 25 26 27 27 27 27 30 38 40 34 33 36 36 34 35 37 37 37 38 39 40 43 44 44
21 20 20 20 20 20 19 18 20 22 22 22 22 20 20 20 20 20 20 19 18 18 18 18 18 18 18 19 19 19 19 18 17 16 16 16 15 15 15 14 14 13 13 12 12 13 13 13 14 15 17 19 20 21 23 24 23 23 23 24 25 24 25 26 26 27 26 27 36 40 36 34 36 36 36 37 37 37 37 37 38 40 42 43 44
22 21 21 20 21 21 20 20 23 24 23 23 23 21 21 21 20 20 20 19 18 18 19 19 19 19 19 19 20 20 19 18 17 16 15 15 14 14 14 13 13 13 12 12 12 13 13 13 14 16 17 18 20 22 23 25 25 24 24 25 25 23 23 23 24 25 24 25 33 39 36 35 36 35 36 38 38 38 38 37 37 40 41 42 43
24 24 23 22 23 23 22 23 25 24 23 24 23 22 22 21 20 19 19 19 20 20 20 20 19 20 19 19 20 20 18 17 16 16 15 15 13 13 13 13 12 11 11 11 11 12 12 13 15 18 18 19 20 22 23 25 25 24 23 24 24 23 22 20 19 23 23 23 30 37 36 36 36 34 36 37 37 37 40 39 37 38 40 42 43
24 23 23 23 23 21 22 23 24 24 23 23 23 23 23 22 20 19 19 20 20 20 19 19 18 17 18 19 20 19 17 16 15 15 15 14 12 10 10 11 10 9 9 9 10 11 12 14 16 18 20 20 20 22 23 23 24 24 22 22 22 21 20 19 18 21 22 21 29 37 36 35 36 35 35 35 33 35 40 40 38 37 40 42 42
24 22 22 22 21 21 22 23 22 22 23 24 24 24 24 23 21 20 21 20 20 20 19 18 18 18 18 19 18 16 16 16 15 14 13 12 10 7 5 6 7 8 7 7 7 9 12 16 17 17 18 18 18 19 21 20 22 24 23 22 22 20 20 22 21 22 21 20 28 36 35 34 36 36 35 32 30 32 38 41 39 38 40 42 42
22 21 21 21 21 23 25 22 19 21 23 25 25 26 27 25 22 21 22 21 21 21 20 20 20 20 19 17 16 14 15 15 14 14 13 12 10 6 4 4 4 4 5 6 7 9 13 15 16 15 16 17 16 17 19 19 20 24 24 24 24 22 21 23 23 24 22 19 27 35 33 31 34 35 35 33 30 31 34 39 41 40 40 42 42
21 20 19 18 20 24 25 20 19 23 26 26 27 28 28 25 22 20 20 21 21 20 19 19 20 19 18 17 16 15 15 13 12 12 12 12 9 6 3 2 0 1 3 5 9 12 14 15 15 15 14 15 14 15 17 17 18 21 22 22 24 22 21 22 22 24 23 19 25 33 31 29 30 33 35 35 34 32 32 36 41 41 40 43 42
20 19 18 18 21 23 23 20 22 25 27 27 29 29 28 25 22 19 17 19 20 20 20 20 20 19 18 17 16 15 14 13 11 10 9 9 9 7 5 3 3 1 3 5 9 12 13 14 14 13 13 14 13 13 16 16 16 19 19 19 21 21 21 21 21 23 23 21 25 29 28 28 30 32 35 35 36 35 33 35 39 40 41 44 43
Wind_Direction
227 218 191 173 179 192 194 214 192 198 250 163 170 217 229 242 234 229 239 243 266 274 268 279 300 316 325 317 322 328 337 356 353 5 16 347 336 336 341 348 351 356 2 8 11 10 10 10 10 8 4 359 355 352 348 345 340 339 338 336 335 335 337 335 333 330 327 325 324 323 318 313 313 314 319 324 327 326 325 324 317 306 297 293 292
225 214 189 171 197 209 189 191 195 192 216 201 194 210 216 232 235 228 230 234 256 262 271 318 342 323 314 312 335 14 13 340 2 14 3 351 343 335 340 347 353 359 3 9 9 7 8 5 5 2 360 356 352 348 345 342 338 337 336 333 332 331 331 331 329 327 326 325 324 322 320 317 313 309 309 313 321 324 323 324 322 315 304 293 290
223 209 197 198 213 217 190 186 197 191 204 212 209 218 220 230 238 230 222 233 254 262 292 351 339 315 320 331 352 38 338 330 23 5 340 13 7 337 340 350 358 4 6 8 7 6 3 0 359 355 353 350 347 344 340 336 333 332 332 330 330 329 329 328 325 325 325 325 324 320 318 317 316 311 306 305 311 317 318 320 321 320 313 300 291
214 208 203 215 217 207 193 189 194 196 211 217 210 218 221 222 235 242 240 237 244 257 283 322 310 319 317 15 9 336 331 355 25 0 3 30 17 340 347 359 6 7 7 6 4 1 355 353 351 348 347 345 343 340 337 335 330 327 326 324 324 325 329 329 327 326 325 323 321 319 316 313 312 310 306 304 304 306 308 311 315 317 317 310 297
210 205 198 218 216 200 198 190 192 205 215 217 217 225 222 219 234 246 239 209 220 244 53 255 260 352 283 47 25 296 26 24 16 22 21 30 42 24 4 6 10 4 6 5 360 354 347 344 343 343 343 342 341 339 339 339 332 327 324 322 322 325 327 329 329 327 325 322 318 316 314 311 307 306 305 304 302 301 302 303 305 310 314 314 306
210 199 196 212 211 205 202 193 201 210 212 216 223 225 216 217 218 210 192 150 229 250 10 253 193 326 271 171 302 334 63 11 342 37 31 27 52 75 32 16 16 4 6 3 354 349 344 342 343 345 344 341 341 341 342 339 332 326 321 319 318 319 320 320 320 321 321 321 320 317 313 309 306 304 304 303 300 299 298 298 298 301 305 309 310
210 198 200 207 204 208 202 194 209 213 207 201 194 202 211 214 200 181 173 160 212 226 253 257 180 258 297 82 352 54 72 316 0 36 64 59 29 50 41 27 30 14 11 1 348 343 343 344 345 345 343 341 340 342 342 339 335 331 327 325 322 320 318 314 312 314 315 315 317 319 316 313 311 307 304 304 303 300 296 295 295 295 296 300 304
209 203 203 203 204 216 210 203 215 218 212 196 181 191 204 205 183 183 209 197 236 218 223 255 180 342 48 76 294 81 111 221 98 60 67 84 40 14 5 17 32 24 23 6 340 330 337 343 343 344 341 337 338 340 339 336 334 333 334 335 333 329 324 319 314 310 308 306 307 313 314 312 315 311 305 304 302 299 296 293 292 292 292 294 296
207 207 207 207 202 210 218 215 219 225 223 210 192 187 193 198 184 186 198 200 260 234 209 190 165 64 72 221 238 105 199 216 110 105 89 85 50 18 16 28 30 21 29 17 331 319 333 341 341 342 337 333 334 335 335 334 334 335 338 339 337 333 328 324 319 314 311 309 308 309 308 306 310 311 306 303 299 298 298 295 290 288 287 289 291
209 214 215 216 201 211 227 219 221 229 225 221 207 192 194 206 189 180 198 196 218 235 217 175 144 150 175 249 184 125 182 104 114 154 135 78 54 34 40 48 23 5 27 17 332 328 345 351 346 341 334 334 334 333 332 332 334 337 340 340 338 334 330 324 318 317 315 316 315 308 303 303 303 303 304 304 302 300 299 296 291 288 287 286 286
213 218 223 223 201 221 230 210 221 226 221 220 213 205 209 220 201 182 199 209 213 232 222 162 138 168 176 240 149 160 192 152 154 194 29 76 89 86 141 205 262 298 23 15 345 346 6 1 346 333 327 334 338 336 336 337 336 335 338 341 343 341 336 331 323 319 314 313 312 307 306 306 303 301 301 303 303 301 297 293 290 289 288 284 280
217 219 227 224 211 229 226 218 234 224 211 213 210 219 225 224 207 187 188 221 230 228 223 151 125 131 165 247 191 167 202 199 174 116 64 78 152 239 261 279 310 327 28 32 4 345 326 288 303 308 313 325 334 339 342 341 335 330 337 345 347 344 338 335 330 325 320 316 311 306 306 307 305 304 301 298 298 298 296 293 290 286 284 282 279
221 222 224 216 219 231 213 220 239 219 205 204 207 221 225 221 203 195 217 238 249 242 208 131 122 131 171 224 241 222 210 215 216 118 100 286 276 295 299 331 355 0 52 56 23 330 307 306 313 313 318 323 331 345 345 337 331 329 340 347 346 344 340 336 331 326 324 321 318 311 308 307 304 303 302 298 295 293 293 293 292 288 285 283 278
225 226 228 227 226 223 208 225 230 218 213 202 205 214 213 224 200 196 239 239 260 266 193 175 176 172 172 185 225 266 93 128 336 102 138 247 290 311 323 348 2 9 39 71 45 323 316 329 341 340 354 359 342 353 350 335 329 330 340 346 347 348 345 340 335 329 324 320 319 316 314 311 304 302 302 299 295 291 290 292 293 292 290 286 281
217 217 224 241 247 220 226 233 217 216 224 203 198 203 198 216 200 200 233 239 271 283 201 205 213 173 160 174 212 210 157 111 40 29 112 267 291 318 337 347 358 2 17 43 19 338 332 345 2 7 15 8 348 359 3 337 325 330 341 348 350 349 347 346 343 338 333 327 321 317 316 313 307 304 302 298 295 292 291 291 291 292 292 290 288
216 218 216 221 6 222 221 223 213 214 216 197 190 194 187 194 208 209 206 214 268 294 281 223 201 171 170 185 208 199 158 122 176 216 33 290 289 322 337 345 356 357 17 43 10 349 355 357 8 19 16 1 352 5 5 331 322 335 348 350 349 347 349 351 350 348 344 338 332 327 322 315 310 308 305 299 295 293 294 293 292 292 293 291 289
224 229 218 198 110 227 215 207 215 210 194 187 185 184 183 194 210 220 199 191 227 295 314 346 172 181 191 188 179 167 150 136 164 188 71 184 273 324 340 342 352 357 25 50 0 340 3 4 11 24 11 350 352 4 357 326 328 346 353 350 347 347 351 353 353 354 352 347 342 338 333 325 319 315 310 303 298 297 297 296 294 293 292 289 287
224 224 216 195 194 221 211 189 200 199 187 190 188 185 191 192 184 196 227 196 174 259 294 3 141 160 178 182 174 180 181 167 159 140 123 159 249 337 347 337 346 7 32 50 6 341 1 8 14 25 6 345 351 353 348 337 339 350 352 349 350 350 351 351 352 354 353 350 347 343 341 337 333 328 321 314 307 304 302 300 299 296 293 288 284
215 212 212 200 200 213 206 188 192 194 189 191 192 192 194 189 182 198 218 198 167 189 227 175 127 147 163 172 174 177 176 176 158 137 132 163 208 341 2 344 346 12 29 45 32 343 357 12 13 19 5 352 359 355 355 359 355 353 351 351 355 352 349 350 351 352 350 347 345 343 342 341 341 337 331 324 318 314 311 307 304 299 294 290 286
198 199 208 201 199 201 191 181 182 187 187 187 188 191 195 200 207 217 224 200 175 184 196 178 167 192 159 128 108 86 112 162 155 132 115 149 160 58 30 360 351 7 16 34 45 340 359 21 6 11 9 357 4 358 357 7 4 355 350 348 351 351 351 353 351 349 346 344 342 341 339 339 342 339 333 329 326 323 319 315 311 304 297 293 290
193 196 205 202 197 186 176 172 170 179 185 188 190 191 204 218 224 228 227 200 186 193 192 181 181 182 151 131 116 94 15 210 154 139 118 125 115 81 55 16 354 348 359 21 32 343 7 29 355 3 9 1 9 3 356 4 3 355 347 342 345 349 356 0 357 354 350 346 343 340 337 336 335 334 332 332 332 330 327 323 319 313 305 298 293
194 199 197 184 179 169 164 165 165 171 181 190 197 203 215 227 229 220 205 190 191 200 192 185 192 191 171 159 147 144 158 174 150 135 120 133 111 74 63 43 350 305 355 16 19 357 11 19 348 357 5 4 13 7 357 2 2 356 348 346 351 355 359 1 0 1 359 355 351 345 341 336 331 330 330 333 336 337 336 332 326 319 314 308 301
197 202 194 172 171 170 160 162 170 178 191 202 211 218 220 220 213 191 180 180 185 187 180 180 191 193 185 178 164 162 170 175 164 143 129 140 120 82 54 69 50 279 7 17 33 25 10 353 346 353 1 8 17 5 357 1 360 356 357 0 1 360 360 359 0 5 6 4 -0 355 350 343 336 332 329 333 338 340 341 340 335 329 322 316 310
197 201 196 176 178 183 174 176 182 182 196 219 224 221 206 191 182 177 177 179 177 174 172 175 181 185 184 182 177 178 184 181 166 154 138 133 132 114 96 89 86 65 33 45 57 35 3 340 349 355 358 8 16 1 355 0 359 359 9 9 2 359 2 3 4 7 8 6 2 358 354 349 343 338 335 338 342 342 341 341 341 337 331 327 324
198 199 191 181 185 190 188 195 194 180 187 212 215 198 178 175 178 176 176 177 174 173 174 176 177 177 174 172 167 164 167 152 141 145 135 130 144 133 114 107 92 85 88 88 58 33 21 351 347 356 2 9 9 355 355 359 358 8 20 9 1 2 3 3 4 6 6 3 360 357 354 351 348 344 344 345 347 347 346 346 345 342 340 338 336
201 199 188 182 188 193 197 204 204 197 200 206 197 179 175 177 174 171 173 175 173 171 171 170 166 161 154 149 145 138 138 137 132 133 126 121 133 127 116 115 106 103 107 85 28 31 48 4 345 355 7 14 0 352 359 357 357 17 24 7 6 8 1 358 2 2 360 357 356 356 356 358 358 355 354 356 356 354 352 352 349 343 343 341 339
202 198 188 185 191 196 202 210 215 212 206 202 192 181 177 172 167 168 171 171 170 167 162 156 147 144 141 136 137 135 134 134 129 125 119 115 119 120 123 122 111 108 113 91 42 33 49 24 355 353 9 23 355 352 3 354 0 24 21 8 12 9 359 358 1 359 356 355 354 354 359 6 10 10 10 8 5 2 358 357 353 347 347 346 342
199 193 188 188 194 201 207 215 220 211 197 195 194 185 174 166 164 168 170 169 168 161 151 146 142 140 138 134 132 133 131 127 124 121 115 112 109 111 126 129 115 100 103 93 51 29 30 42 21 353 12 30 354 355 10 355 8 26 17 14 15 4 0 4 4 0 357 354 351 351 360 9 14 17 18 15 11 9 5 3 358 355 354 350 344
195 193 194 196 199 205 213 219 217 205 193 193 192 180 171 167 169 174 174 171 164 155 148 144 143 139 136 134 130 128 124 121 121 119 113 110 106 105 120 135 132 113 90 74 51 32 21 41 31 357 18 32 354 1 19 4 14 23 16 22 17 3 7 11 7 4 359 354 350 353 1 8 13 17 17 16 14 12 10 8 4 0 357 352 345
195 199 200 202 205 209 215 217 209 196 191 192 187 175 170 170 174 175 172 168 160 152 147 142 138 135 132 131 128 125 121 119 117 116 115 112 107 103 106 129 140 122 96 78 59 42 34 44 31 3 25 35 359 5 23 20 23 24 21 29 22 9 15 16 10 4 358 355 354 358 3 5 10 15 15 15 13 10 10 10 9 5 1 355 349
197 200 200 205 212 212 213 212 202 194 191 191 184 171 168 171 175 175 170 164 157 149 144 140 137 134 131 128 125 121 120 119 116 113 112 112 110 104 97 118 135 120 99 92 74 45 41 51 33 10 36 42 8 12 30 33 36 34 31 37 35 22 21 18 11 1 356 356 358 2 5 4 9 14 13 13 11 7 9 11 10 7 3 359 355
197 198 199 207 213 215 217 208 199 202 195 188 178 167 168 174 176 175 168 158 153 149 146 143 140 137 135 132 126 121 117 115 113 112 110 108 110 108 103 116 128 117 99 92 86 48 36 49 35 19 43 48 16 20 36 41 44 43 38 40 39 34 31 27 16 0 357 -0 3 7 7 4 7 12 11 10 8 5 9 13 10 6 2 360 358
199 198 200 206 211 216 218 197 190 201 196 181 171 168 172 177 174 172 166 157 153 149 145 144 142 140 139 136 131 128 124 117 112 113 109 105 104 107 110 116 120 113 100 89 88 63 39 45 38 29 43 49 27 24 36 45 47 46 43 40 36 33 33 32 23 5 1 5 7 7 7 5 7 10 8 6 5 4 8 13 10 5 1 358 358
191 193 197 204 210 217 213 188 178 185 187 173 168 172 176 177 173 170 165 160 156 153 150 147 145 142 140 137 133 132 131 127 123 119 112 103 99 101 108 114 113 109 103 96 87 73 49 43 41 38 42 45 37 29 34 45 46 43 42 39 30 26 27 29 26 10 4 8 9 6 5 5 8 10 6 4 3 2 6 11 11 6 2 359 358
188 193 195 200 209 213 198 180 168 168 178 173 171 177 178 176 176 173 167 163 160 157 153 149 146 143 140 137 135 133 133 133 131 127 121 112 103 95 98 105 103 95 94 95 85 70 56 42 36 37 42 44 41 35 35 44 44 38 39 37 25 19 22 25 22 11 7 12 11 8 5 5 10 10 3 2 2 1 6 11 11 8 4 2 360
191 193 192 194 200 200 186 170 159 166 182 182 177 178 178 179 181 176 167 160 155 152 149 146 145 143 140 138 136 134 135 136 134 132 129 124 116 105 96 95 94 86 79 79 80 69 58 47 34 31 38 43 43 40 38 44 45 38 37 37 24 18 24 26 18 8 10 14 14 14 11 8 14 10 0 2 6 6 10 11 10 7 4 2 0
190 186 185 185 183 182 174 160 159 172 182 177 174 176 178 181 182 173 162 156 154 152 150 148 147 146 144 143 141 140 140 138 136 135 133 132 128 120 110 97 89 85 73 63 69 72 60 51 42 32 35 42 43 39 36 40 42 38 39 37 24 18 27 29 17 8 12 15 14 18 18 16 19 13 -0 2 8 9 10 9 8 5 3 2 0
188 184 182 176 172 168 159 157 167 176 174 168 172 178 178 177 174 168 163 162 160 156 153 153 154 154 152 150 148 146 145 142 138 137 136 138 134 125 117 105 89 84 78 61 56 70 69 54 46 37 35 41 43 38 35 37 37 33 34 32 24 23 30 28 15 10 14 16 14 17 21 21 23 20 4 358 1 4 5 6 6 4 3 3 0
190 186 173 161 162 162 161 168 179 177 170 171 175 177 177 175 174 171 167 165 162 158 159 161 161 156 150 144 140 138 138 138 137 136 137 139 138 131 120 110 97 87 89 80 53 63 75 64 50 43 39 40 42 38 34 36 37 33 30 24 18 20 26 25 14 8 12 16 14 16 23 24 24 23 12 359 358 0 2 3 4 3 3 4 1
189 181 160 155 163 166 169 179 186 179 173 175 175 175 177 178 177 172 168 165 163 163 167 166 159 147 140 137 135 133 132 131 129 129 129 131 132 129 122 117 114 110 105 98 71 62 75 74 59 49 45 42 41 39 33 31 34 35 33 25 14 12 17 20 15 6 7 12 12 14 22 24 21 20 14 3 358 360 2 2 3 3 3 5 4
183 172 157 161 167 170 179 186 185 178 176 176 176 178 182 180 177 172 169 167 167 168 169 162 150 143 142 141 138 136 134 131 127 123 119 117 117 115 114 115 119 123 124 118 100 75 73 77 69 56 49 43 39 38 34 31 31 33 34 29 18 12 14 17 15 6 2 7 9 12 20 22 17 14 11 3 358 360 2 2 3 3 2 4 5
177 168 163 168 169 175 188 193 184 176 178 178 178 183 186 181 177 174 170 168 169 170 166 156 150 148 147 143 139 137 134 129 126 122 118 115 112 108 106 105 107 114 120 119 110 90 71 69 67 58 51 46 40 37 35 32 30 32 35 31 20 14 12 13 11 3 358 2 4 7 18 21 14 10 9 3 -0 2 4 4 4 2 359 359 2
174 166 168 173 173 180 192 193 184 180 180 180 181 185 186 181 179 176 169 168 171 170 163 156 153 153 149 145 142 138 134 129 126 124 120 115 112 107 104 101 99 99 100 99 98 93 78 67 62 56 52 48 41 38 35 32 30 32 36 33 21 13 12 11 7 359 355 357 358 -0 10 19 14 10 7 4 3 6 6 6 5 1 358 358 360
172 167 173 176 177 185 192 188 185 185 183 184 185 186 183 180 179 174 169 171 173 169 162 158 157 155 151 148 145 140 135 131 126 123 121 116 112 107 102 98 94 91 88 83 82 84 78 68 61 54 51 47 42 38 34 30 29 30 34 33 23 15 15 13 6 359 354 352 354 357 6 15 12 7 5 5 7 9 8 6 4 1 1 0 359
172 171 176 178 181 190 195 191 190 189 188 188 188 185 180 177 174 172 171 172 171 164 160 159 158 156 155 153 149 143 138 134 129 124 121 116 111 107 101 95 88 84 81 76 73 74 72 66 59 52 48 45 40 37 34 29 26 25 30 30 22 15 16 13 6 3 357 349 351 357 6 13 10 3 1 2 5 9 8 5 3 3 4 3 -0
175 177 179 181 187 195 200 198 195 194 193 192 190 184 178 172 168 169 170 168 165 161 161 164 165 164 163 160 155 150 147 145 140 133 128 121 113 108 101 93 86 80 77 73 70 69 65 59 53 46 41 38 34 30 29 28 24 24 28 26 18 12 14 11 4 4 2 352 350 357 4 9 8 2 358 356 359 5 7 5 4 4 5 4 1
180 182 182 185 191 197 202 202 199 197 195 193 189 183 175 166 163 167 168 166 165 164 166 170 169 168 169 167 165 164 161 157 151 144 137 126 114 105 96 90 86 79 73 68 66 63 58 50 44 38 32 29 27 23 21 20 19 21 27 25 15 10 11 9 3 3 3 354 353 358 1 4 5 2 356 354 357 4 7 6 6 7 6 4 3
181 181 181 187 191 196 204 206 202 199 195 191 187 180 172 165 165 168 168 166 168 169 169 170 169 172 176 175 174 173 164 157 154 149 138 126 117 110 102 96 89 79 70 63 60 58 54 46 39 34 26 22 22 19 16 14 10 13 22 22 13 7 7 6 2 2 4 357 355 359 360 1 4 -0 354 354 359 3 5 6 8 10 8 6 5
180 179 184 192 194 199 205 204 199 197 193 187 183 178 171 169 170 171 170 170 172 172 171 174 177 180 179 176 173 166 158 157 155 148 139 130 124 125 118 93 75 61 52 56 58 51 49 43 34 29 24 18 17 16 15 12 5 7 15 16 8 4 5 4 359 359 3 358 354 360 2 2 4 2 356 356 2 4 2 3 7 10 9 7 7
179 179 187 194 195 201 207 203 196 196 191 184 181 178 175 174 172 171 174 177 176 173 175 181 185 184 179 175 171 164 160 161 157 152 147 138 136 142 135 108 87 329 358 32 49 45 43 38 26 21 18 14 12 12 13 11 1 3 13 11 3 2 3 2 357 355 359 358 354 358 3 3 3 2 359 359 2 6 3 0 5 10 8 6 8
179 179 186 191 193 202 209 204 196 195 191 184 181 179 178 175 169 165 174 182 178 175 181 187 187 186 183 177 171 166 165 163 158 157 154 147 149 154 155 177 212 248 350 18 42 43 39 33 20 12 7 7 9 4 4 6 357 358 9 6 360 3 4 -0 355 350 351 354 354 357 3 6 3 359 358 356 355 359 2 358 -0 7 7 5 6